TimeCST,TemperatureF,Dew PointF,Humidity,Sea Level PressureIn,VisibilityMPH,Wind Direction,Wind SpeedMPH,Gust SpeedMPH,PrecipitationIn,Events,Conditions,WindDirDegrees,DateUTC
12:04 AM,33.8,26.6,75,30.20,10.0,North,26.5,39.1,N/A,,Overcast,10,2013-03-05 06:04:00
1:53 AM,32.0,23.0,69,30.19,10.0,North,17.3,-,N/A,,Clear,360,2013-03-05 07:53:00
2:53 AM,30.9,24.1,76,30.21,10.0,North,12.7,-,N/A,,Clear,350,2013-03-05 08:53:00
3:53 AM,30.9,24.1,76,30.24,10.0,North,16.1,-,N/A,,Clear,350,2013-03-05 09:53:00
4:53 AM,28.9,19.9,69,30.27,10.0,North,12.7,-,N/A,,Clear,350,2013-03-05 10:53:00
5:53 AM,27.0,19.0,72,30.32,10.0,North,8.1,-,N/A,,Clear,350,2013-03-05 11:53:00
6:53 AM,24.8,17.6,74,30.35,10.0,NNW,6.9,-,N/A,,Clear,340,2013-03-05 12:53:00
7:53 AM,26.1,19.0,75,30.39,10.0,North,6.9,-,N/A,,Clear,10,2013-03-05 13:53:00
8:53 AM,30.9,19.0,61,30.43,10.0,NNW,12.7,-,N/A,,Clear,340,2013-03-05 14:53:00
9:53 AM,35.1,18.0,50,30.46,10.0,NNW,11.5,-,N/A,,Clear,340,2013-03-05 15:53:00
10:53 AM,39.0,12.9,34,30.45,10.0,North,16.1,21.9,N/A,,Clear,360,2013-03-05 16:53:00
11:53 AM,39.9,12.0,32,30.44,10.0,North,12.7,18.4,N/A,,Clear,360,2013-03-05 17:53:00
12:53 PM,43.0,12.0,28,30.42,10.0,NW,9.2,-,N/A,,Clear,310,2013-03-05 18:53:00
1:53 PM,45.0,10.9,25,30.38,10.0,NNW,5.8,-,N/A,,Clear,340,2013-03-05 19:53:00
2:53 PM,46.0,12.9,26,30.36,10.0,NNW,6.9,-,N/A,,Clear,330,2013-03-05 20:53:00
3:53 PM,48.9,12.9,24,30.34,10.0,WSW,6.9,-,N/A,,Clear,250,2013-03-05 21:53:00
4:53 PM,48.0,12.9,24,30.33,10.0,WSW,4.6,-,N/A,,Clear,250,2013-03-05 22:53:00
5:53 PM,46.9,12.9,25,30.34,10.0,Calm,Calm,-,N/A,,Clear,0,2013-03-05 23:53:00
6:53 PM,42.1,16.0,35,30.35,10.0,SSE,5.8,-,N/A,,Clear,160,2013-03-06 00:53:00
7:53 PM,39.9,18.0,41,30.36,10.0,SSE,6.9,-,N/A,,Clear,150,2013-03-06 01:53:00
8:53 PM,37.0,18.0,46,30.35,10.0,SE,8.1,-,N/A,,Clear,140,2013-03-06 02:53:00
9:53 PM,36.0,18.0,48,30.36,10.0,SSE,10.4,-,N/A,,Clear,150,2013-03-06 03:53:00
10:53 PM,35.1,19.0,52,30.36,10.0,SE,9.2,-,N/A,,Clear,140,2013-03-06 04:53:00
11:53 PM,35.1,17.1,48,30.33,10.0,SSE,13.8,-,N/A,,Clear,150,2013-03-06 05:53:00